Time,TemperatureF,DewpointF,PressureIn,WindDirection,WindDirectionDegrees,WindSpeedMPH,WindSpeedGustMPH,Humidity,HourlyPrecipIn,Conditions,Clouds,dailyrainin,SoftwareType,DateUTC
2013-09-28 00:00:00,68.3,62.2,29.79,ESE,121,0.0,0.0,81,0.00,,CLR,0.00,VWS V14.01,2013-09-28 05:00:00,
2013-09-28 00:06:00,68.3,62.2,29.79,ESE,121,0.0,0.0,81,0.00,,CLR,0.00,VWS V14.01,2013-09-28 05:06:00,
2013-09-28 00:11:00,68.2,62.2,29.79,ESE,121,0.0,0.0,81,0.00,,CLR,0.00,VWS V14.01,2013-09-28 05:11:00,
2013-09-28 00:16:00,68.2,62.2,29.79,ESE,121,0.0,0.0,81,0.00,,CLR,0.00,VWS V14.01,2013-09-28 05:16:00,
2013-09-28 00:21:00,68.1,62.1,29.79,ESE,121,0.0,0.0,81,0.00,,CLR,0.00,VWS V14.01,2013-09-28 05:21:00,
2013-09-28 00:26:00,68.0,62.3,29.79,ESE,121,0.0,0.0,82,0.00,,CLR,0.00,VWS V14.01,2013-09-28 05:26:00,
2013-09-28 00:30:00,67.9,61.9,29.79,ESE,121,0.0,0.0,81,0.00,,CLR,0.00,VWS V14.01,2013-09-28 05:30:00,
2013-09-28 00:31:00,67.9,62.2,29.79,ESE,121,0.0,0.0,82,0.00,,CLR,0.00,VWS V14.01,2013-09-28 05:31:00,
2013-09-28 00:36:00,67.8,62.1,29.79,ESE,121,0.0,0.0,82,0.00,,CLR,0.00,VWS V14.01,2013-09-28 05:36:00,
2013-09-28 00:41:00,67.6,61.9,29.79,ESE,121,0.0,0.0,82,0.00,,CLR,0.00,VWS V14.01,2013-09-28 05:41:00,
2013-09-28 00:46:00,67.5,61.8,29.79,ESE,121,0.0,0.0,82,0.00,,CLR,0.00,VWS V14.01,2013-09-28 05:46:00,
2013-09-28 00:51:00,67.4,62.1,29.79,ESE,121,0.0,0.0,83,0.00,,CLR,0.00,VWS V14.01,2013-09-28 05:51:00,
2013-09-28 00:56:00,67.3,62.0,29.79,ESE,121,0.0,0.0,83,0.00,,CLR,0.00,VWS V14.01,2013-09-28 05:56:00,
2013-09-28 01:00:00,67.3,62.0,29.79,ESE,121,0.0,0.0,83,0.00,,CLR,0.00,VWS V14.01,2013-09-28 06:00:00,
2013-09-28 01:02:00,67.3,62.0,29.79,ESE,121,0.0,0.0,83,0.00,,CLR,0.00,VWS V14.01,2013-09-28 06:02:00,
2013-09-28 01:07:00,67.2,61.9,29.79,ESE,121,0.0,0.0,83,0.00,,CLR,0.00,VWS V14.01,2013-09-28 06:07:00,
2013-09-28 01:12:00,67.1,61.8,29.79,ESE,121,0.0,0.0,83,0.00,,CLR,0.00,VWS V14.01,2013-09-28 06:12:00,
2013-09-28 01:17:00,67.1,61.8,29.79,ESE,121,0.0,0.0,83,0.00,,CLR,0.00,VWS V14.01,2013-09-28 06:17:00,
2013-09-28 01:22:00,67.1,61.8,29.78,ESE,121,0.0,0.0,83,0.00,,CLR,0.00,VWS V14.01,2013-09-28 06:22:00,
2013-09-28 01:27:00,67.0,61.7,29.79,ESE,121,0.0,0.0,83,0.00,,CLR,0.00,VWS V14.01,2013-09-28 06:27:00,
2013-09-28 01:30:00,67.0,62.0,29.79,ESE,121,0.0,0.0,84,0.00,,CLR,0.00,VWS V14.01,2013-09-28 06:30:00,
2013-09-28 01:32:00,67.0,62.0,29.79,ESE,121,0.0,0.0,84,0.00,,CLR,0.00,VWS V14.01,2013-09-28 06:32:00,
2013-09-28 01:37:00,66.9,61.9,29.78,ESE,121,0.0,0.0,84,0.00,,CLR,0.00,VWS V14.01,2013-09-28 06:37:00,
2013-09-28 01:42:00,66.8,61.8,29.79,ESE,121,0.0,0.0,84,0.00,,CLR,0.00,VWS V14.01,2013-09-28 06:42:00,
2013-09-28 01:47:00,66.8,61.8,29.79,ESE,121,0.0,0.0,84,0.00,,CLR,0.00,VWS V14.01,2013-09-28 06:47:00,
2013-09-28 01:53:00,66.7,61.7,29.79,ESE,121,0.0,1.0,84,0.00,,CLR,0.00,VWS V14.01,2013-09-28 06:53:00,
2013-09-28 01:58:00,66.6,61.6,29.79,ESE,121,0.0,1.0,84,0.00,,CLR,0.00,VWS V14.01,2013-09-28 06:58:00,
2013-09-28 02:00:00,66.6,61.6,29.79,ESE,121,0.0,1.0,84,0.00,,CLR,0.00,VWS V14.01,2013-09-28 07:00:00,
2013-09-28 02:03:00,66.6,62.0,29.78,ESE,121,0.0,0.0,85,0.00,,CLR,0.00,VWS V14.01,2013-09-28 07:03:00,
2013-09-28 02:08:00,66.5,61.9,29.78,ESE,121,0.0,0.0,85,0.00,,CLR,0.00,VWS V14.01,2013-09-28 07:08:00,
2013-09-28 02:13:00,66.4,61.8,29.78,ESE,121,0.0,1.0,85,0.00,,CLR,0.00,VWS V14.01,2013-09-28 07:13:00,
2013-09-28 02:18:00,66.3,61.7,29.78,ESE,121,0.0,1.0,85,0.00,,CLR,0.00,VWS V14.01,2013-09-28 07:18:00,
2013-09-28 02:23:00,66.2,61.9,29.78,ESE,121,0.0,2.0,86,0.00,,CLR,0.00,VWS V14.01,2013-09-28 07:23:00,
2013-09-28 02:28:00,66.1,61.8,29.78,ESE,121,0.0,2.0,86,0.00,,CLR,0.00,VWS V14.01,2013-09-28 07:28:00,
2013-09-28 02:30:00,66.1,61.8,29.78,ESE,121,0.0,2.0,86,0.00,,CLR,0.00,VWS V14.01,2013-09-28 07:30:00,
2013-09-28 02:33:00,66.1,61.8,29.78,ESE,121,0.0,0.0,86,0.00,,CLR,0.00,VWS V14.01,2013-09-28 07:33:00,
2013-09-28 02:38:00,66.0,61.7,29.78,SE,131,0.0,1.0,86,0.00,,CLR,0.00,VWS V14.01,2013-09-28 07:38:00,
2013-09-28 02:44:00,66.0,61.7,29.78,SE,139,0.0,1.0,86,0.00,,CLR,0.00,VWS V14.01,2013-09-28 07:44:00,
2013-09-28 02:49:00,65.9,61.6,29.78,ESE,111,0.0,1.0,86,0.00,,CLR,0.00,VWS V14.01,2013-09-28 07:49:00,
2013-09-28 02:54:00,65.9,61.9,29.78,ESE,111,0.0,1.0,87,0.00,,CLR,0.00,VWS V14.01,2013-09-28 07:54:00,
2013-09-28 02:59:00,65.9,61.9,29.78,ESE,111,0.0,1.0,87,0.00,,CLR,0.00,VWS V14.01,2013-09-28 07:59:00,
2013-09-28 03:00:00,65.9,61.9,29.78,ESE,111,0.0,1.0,87,0.00,,CLR,0.00,VWS V14.01,2013-09-28 08:00:00,
2013-09-28 03:04:00,65.9,61.9,29.77,ESE,111,0.0,1.0,87,0.00,,CLR,0.00,VWS V14.01,2013-09-28 08:04:00,
2013-09-28 03:09:00,65.8,61.8,29.77,ESE,114,0.0,1.0,87,0.00,,CLR,0.00,VWS V14.01,2013-09-28 08:09:00,
2013-09-28 03:14:00,65.8,61.8,29.77,SE,141,1.0,2.0,87,0.00,,CLR,0.00,VWS V14.01,2013-09-28 08:14:00,
2013-09-28 03:19:00,65.7,62.0,29.77,SE,141,0.0,2.0,88,0.00,,CLR,0.00,VWS V14.01,2013-09-28 08:19:00,
2013-09-28 03:24:00,65.6,62.0,29.77,SE,128,0.0,2.0,88,0.00,,CLR,0.00,VWS V14.01,2013-09-28 08:24:00,
2013-09-28 03:29:00,65.6,62.0,29.77,SE,129,0.0,0.0,88,0.00,,CLR,0.00,VWS V14.01,2013-09-28 08:29:00,
2013-09-28 03:30:00,65.6,62.0,29.77,SE,129,0.0,2.0,88,0.00,,CLR,0.00,VWS V14.01,2013-09-28 08:30:00,
2013-09-28 03:34:00,65.6,62.0,29.77,ESE,116,0.0,1.0,88,0.00,,CLR,0.00,VWS V14.01,2013-09-28 08:34:00,
2013-09-28 03:40:00,65.7,62.0,29.77,ESE,114,0.0,2.0,88,0.00,,CLR,0.00,VWS V14.01,2013-09-28 08:40:00,
2013-09-28 03:45:00,65.7,62.0,29.77,ESE,114,0.0,2.0,88,0.00,,CLR,0.00,VWS V14.01,2013-09-28 08:45:00,
2013-09-28 03:50:00,65.6,62.0,29.77,ESE,111,0.0,2.0,88,0.00,,CLR,0.00,VWS V14.01,2013-09-28 08:50:00,
2013-09-28 03:55:00,65.6,62.0,29.77,SE,128,0.0,2.0,88,0.00,,CLR,0.00,VWS V14.01,2013-09-28 08:55:00,
2013-09-28 04:00:00,65.6,62.3,29.77,ESE,103,0.0,0.0,89,0.00,,CLR,0.00,VWS V14.01,2013-09-28 09:00:00,
2013-09-28 04:05:00,65.5,62.2,29.78,ESE,103,0.0,0.0,89,0.00,,CLR,0.00,VWS V14.01,2013-09-28 09:05:00,
2013-09-28 04:10:00,65.5,62.2,29.78,ESE,119,1.0,1.0,89,0.00,,CLR,0.00,VWS V14.01,2013-09-28 09:10:00,
2013-09-28 04:15:00,65.5,62.2,29.77,SSE,162,1.0,2.0,89,0.00,,CLR,0.00,VWS V14.01,2013-09-28 09:15:00,
2013-09-28 04:20:00,65.5,62.2,29.78,SE,141,0.0,2.0,89,0.00,,CLR,0.00,VWS V14.01,2013-09-28 09:20:00,
2013-09-28 04:25:00,65.5,62.2,29.78,SE,141,0.0,2.0,89,0.00,,CLR,0.00,VWS V14.01,2013-09-28 09:25:00,
2013-09-28 04:30:00,65.4,62.1,29.78,SE,141,0.0,0.0,89,0.00,,CLR,0.00,VWS V14.01,2013-09-28 09:30:00,
2013-09-28 04:35:00,65.3,62.3,29.78,SE,141,0.0,1.0,90,0.00,,CLR,0.00,VWS V14.01,2013-09-28 09:35:00,
2013-09-28 04:40:00,65.4,62.4,29.78,SE,145,0.0,1.0,90,0.00,,CLR,0.00,VWS V14.01,2013-09-28 09:40:00,
2013-09-28 04:46:00,65.3,62.3,29.78,South,187,0.0,1.0,90,0.00,,CLR,0.00,VWS V14.01,2013-09-28 09:46:00,
2013-09-28 04:51:00,65.4,62.4,29.78,South,187,0.0,1.0,90,0.00,,CLR,0.00,VWS V14.01,2013-09-28 09:51:00,
2013-09-28 04:56:00,65.4,62.4,29.78,South,187,0.0,1.0,90,0.00,,CLR,0.00,VWS V14.01,2013-09-28 09:56:00,
2013-09-28 05:00:00,65.4,62.4,29.78,South,187,0.0,1.0,90,0.00,,CLR,0.00,VWS V14.01,2013-09-28 10:00:00,
2013-09-28 05:01:00,65.4,62.4,29.79,South,179,0.0,1.0,90,0.00,,CLR,0.00,VWS V14.01,2013-09-28 10:01:00,
2013-09-28 05:06:00,65.4,62.4,29.78,South,179,0.0,1.0,90,0.00,,CLR,0.00,VWS V14.01,2013-09-28 10:06:00,
2013-09-28 05:11:00,65.4,62.4,29.78,South,179,0.0,1.0,90,0.00,,CLR,0.00,VWS V14.01,2013-09-28 10:11:00,
2013-09-28 05:16:00,65.3,62.3,29.78,South,179,0.0,1.0,90,0.00,,CLR,0.00,VWS V14.01,2013-09-28 10:16:00,
2013-09-28 05:21:00,65.2,62.2,29.78,ESE,121,0.0,1.0,90,0.00,,CLR,0.00,VWS V14.01,2013-09-28 10:21:00,
2013-09-28 05:26:00,65.1,62.1,29.78,ESE,109,0.0,1.0,90,0.00,,CLR,0.00,VWS V14.01,2013-09-28 10:26:00,
2013-09-28 05:30:00,65.1,62.1,29.78,ESE,109,0.0,1.0,90,0.00,,CLR,0.00,VWS V14.01,2013-09-28 10:30:00,
2013-09-28 05:31:00,65.1,62.1,29.79,ESE,119,0.0,0.0,90,0.00,,CLR,0.00,VWS V14.01,2013-09-28 10:31:00,
2013-09-28 05:36:00,65.0,62.0,29.78,SE,130,0.0,0.0,90,0.00,,CLR,0.00,VWS V14.01,2013-09-28 10:36:00,
2013-09-28 05:42:00,65.0,62.0,29.78,SE,130,0.0,0.0,90,0.00,,CLR,0.00,VWS V14.01,2013-09-28 10:42:00,
2013-09-28 05:47:00,64.9,62.2,29.79,SSE,161,0.0,0.0,91,0.00,,CLR,0.00,VWS V14.01,2013-09-28 10:47:00,
2013-09-28 05:52:00,64.8,62.1,29.79,SSE,161,0.0,1.0,91,0.00,,CLR,0.00,VWS V14.01,2013-09-28 10:52:00,
2013-09-28 05:57:00,64.7,62.0,29.79,SSE,161,0.0,1.0,91,0.00,,CLR,0.00,VWS V14.01,2013-09-28 10:57:00,
2013-09-28 06:00:00,64.7,62.0,29.79,SSE,161,0.0,1.0,91,0.00,,CLR,0.00,VWS V14.01,2013-09-28 11:00:00,
2013-09-28 06:02:00,64.6,61.9,29.80,SSE,161,0.0,0.0,91,0.00,,CLR,0.00,VWS V14.01,2013-09-28 11:02:00,
2013-09-28 06:07:00,64.5,61.8,29.80,SSE,161,0.0,0.0,91,0.00,,CLR,0.00,VWS V14.01,2013-09-28 11:07:00,
2013-09-28 06:12:00,64.5,62.1,29.80,SSE,161,0.0,0.0,92,0.00,,CLR,0.00,VWS V14.01,2013-09-28 11:12:00,
2013-09-28 06:17:00,64.4,62.0,29.80,SSE,161,0.0,0.0,92,0.00,,CLR,0.00,VWS V14.01,2013-09-28 11:17:00,
2013-09-28 06:22:00,64.3,61.9,29.80,SSE,161,0.0,0.0,92,0.00,,CLR,0.00,VWS V14.01,2013-09-28 11:22:00,
2013-09-28 06:27:00,64.3,61.9,29.80,SSE,161,0.0,0.0,92,0.00,,CLR,0.00,VWS V14.01,2013-09-28 11:27:00,
2013-09-28 06:30:00,64.2,61.8,29.80,SSE,161,0.0,0.0,92,0.00,,CLR,0.00,VWS V14.01,2013-09-28 11:30:00,
2013-09-28 06:32:00,64.2,61.8,29.80,SSE,161,0.0,0.0,92,0.00,,CLR,0.00,VWS V14.01,2013-09-28 11:32:00,
2013-09-28 06:37:00,64.2,61.8,29.80,SSE,161,0.0,0.0,92,0.00,,CLR,0.00,VWS V14.01,2013-09-28 11:37:00,
2013-09-28 06:42:00,64.2,61.8,29.80,SE,138,1.0,1.0,92,0.00,,CLR,0.00,VWS V14.01,2013-09-28 11:42:00,
2013-09-28 06:48:00,64.2,61.8,29.80,SE,138,0.0,1.0,92,0.00,,CLR,0.00,VWS V14.01,2013-09-28 11:48:00,
2013-09-28 06:53:00,64.2,61.8,29.81,SE,138,0.0,1.0,92,0.00,,CLR,0.00,VWS V14.01,2013-09-28 11:53:00,
2013-09-28 06:58:00,64.2,61.8,29.81,ESE,109,0.0,1.0,92,0.00,,CLR,0.00,VWS V14.01,2013-09-28 11:58:00,
2013-09-28 07:00:00,64.2,61.8,29.81,ESE,109,0.0,1.0,92,0.00,,CLR,0.00,VWS V14.01,2013-09-28 12:00:00,
2013-09-28 07:03:00,64.2,62.1,29.81,ESE,109,0.0,1.0,93,0.00,,CLR,0.00,VWS V14.01,2013-09-28 12:03:00,
2013-09-28 07:08:00,64.3,62.2,29.81,ESE,109,1.0,1.0,93,0.00,,CLR,0.00,VWS V14.01,2013-09-28 12:08:00,
2013-09-28 07:13:00,64.3,62.2,29.81,ESE,111,1.0,1.0,93,0.00,,CLR,0.00,VWS V14.01,2013-09-28 12:13:00,
2013-09-28 07:18:00,64.5,62.4,29.81,ESE,116,0.0,2.0,93,0.00,,CLR,0.00,VWS V14.01,2013-09-28 12:18:00,
2013-09-28 07:23:00,64.6,62.2,29.81,ESE,116,0.0,2.0,92,0.00,,CLR,0.00,VWS V14.01,2013-09-28 12:23:00,
2013-09-28 07:28:00,64.7,62.3,29.81,ESE,107,0.0,2.0,92,0.00,,CLR,0.00,VWS V14.01,2013-09-28 12:28:00,
2013-09-28 07:30:00,64.8,62.4,29.81,ESE,107,0.0,2.0,92,0.00,,CLR,0.00,VWS V14.01,2013-09-28 12:30:00,
2013-09-28 07:33:00,64.9,62.5,29.81,ESE,107,0.0,1.0,92,0.00,,CLR,0.00,VWS V14.01,2013-09-28 12:33:00,
2013-09-28 07:38:00,65.1,62.7,29.81,ESE,107,1.0,1.0,92,0.00,,CLR,0.00,VWS V14.01,2013-09-28 12:38:00,
2013-09-28 07:43:00,65.4,62.7,29.81,ESE,119,0.0,1.0,91,0.00,,CLR,0.00,VWS V14.01,2013-09-28 12:43:00,
2013-09-28 07:48:00,65.7,63.0,29.81,ESE,110,1.0,1.0,91,0.00,,CLR,0.00,VWS V14.01,2013-09-28 12:48:00,
2013-09-28 07:53:00,66.1,63.4,29.81,SSW,206,0.0,2.0,91,0.00,,CLR,0.00,VWS V14.01,2013-09-28 12:53:00,
2013-09-28 07:58:00,66.5,63.5,29.81,ESE,119,0.0,3.0,90,0.00,,CLR,0.00,VWS V14.01,2013-09-28 12:58:00,
2013-09-28 08:00:00,66.5,63.5,29.81,SE,130,0.0,3.0,90,0.00,,CLR,0.00,VWS V14.01,2013-09-28 13:00:00,
2013-09-28 08:04:00,66.9,63.9,29.81,ESE,117,1.0,1.0,90,0.00,,CLR,0.00,VWS V14.01,2013-09-28 13:04:00,
2013-09-28 08:09:00,67.2,63.8,29.81,SE,131,1.0,2.0,89,0.00,,CLR,0.00,VWS V14.01,2013-09-28 13:09:00,
2013-09-28 08:14:00,67.4,63.7,29.82,SE,139,0.0,2.0,88,0.00,,CLR,0.00,VWS V14.01,2013-09-28 13:14:00,
2013-09-28 08:19:00,67.5,63.8,29.82,East,96,0.0,2.0,88,0.00,,CLR,0.00,VWS V14.01,2013-09-28 13:19:00,
2013-09-28 08:24:00,67.7,64.0,29.82,South,191,0.0,2.0,88,0.00,,CLR,0.00,VWS V14.01,2013-09-28 13:24:00,
2013-09-28 08:29:00,67.9,63.9,29.82,East,101,0.0,2.0,87,0.00,,CLR,0.00,VWS V14.01,2013-09-28 13:29:00,
2013-09-28 08:30:00,67.9,63.9,29.82,East,101,0.0,2.0,87,0.00,,CLR,0.00,VWS V14.01,2013-09-28 13:30:00,
2013-09-28 08:34:00,68.3,64.3,29.82,South,171,0.0,1.0,87,0.00,,CLR,0.00,VWS V14.01,2013-09-28 13:34:00,
2013-09-28 08:39:00,68.6,64.6,29.82,SE,126,0.0,1.0,87,0.00,,CLR,0.00,VWS V14.01,2013-09-28 13:39:00,
2013-09-28 08:44:00,68.7,64.3,29.82,SSE,167,0.0,1.0,86,0.00,,CLR,0.00,VWS V14.01,2013-09-28 13:44:00,
2013-09-28 08:49:00,68.9,64.6,29.82,ESE,115,0.0,2.0,86,0.00,,CLR,0.00,VWS V14.01,2013-09-28 13:49:00,
2013-09-28 08:55:00,69.4,65.0,29.82,South,190,1.0,2.0,86,0.00,,CLR,0.00,VWS V14.01,2013-09-28 13:55:00,
2013-09-28 09:00:00,69.9,65.2,29.82,SSE,155,0.0,1.0,85,0.00,,CLR,0.00,VWS V14.01,2013-09-28 14:00:00,
2013-09-28 09:05:00,70.4,65.3,29.82,South,182,1.0,3.0,84,0.00,,CLR,0.00,VWS V14.01,2013-09-28 14:05:00,
2013-09-28 09:10:00,70.8,65.7,29.82,SSE,165,0.0,3.0,84,0.00,,CLR,0.00,VWS V14.01,2013-09-28 14:10:00,
2013-09-28 09:15:00,71.2,65.4,29.82,South,184,0.0,3.0,82,0.00,,CLR,0.00,VWS V14.01,2013-09-28 14:15:00,
2013-09-28 09:20:00,71.3,65.9,29.82,SSE,149,1.0,3.0,83,0.00,,BKN065,0.00,VWS V14.01,2013-09-28 14:20:00,
2013-09-28 09:25:00,71.4,66.0,29.83,SE,132,0.0,3.0,83,0.00,,BKN065,0.00,VWS V14.01,2013-09-28 14:25:00,
2013-09-28 09:30:00,71.7,65.9,29.83,SSE,161,0.0,3.0,82,0.00,,BKN065,0.00,VWS V14.01,2013-09-28 14:30:00,
2013-09-28 09:35:00,72.1,65.9,29.83,SE,124,2.0,3.0,81,0.00,,BKN065,0.00,VWS V14.01,2013-09-28 14:35:00,
2013-09-28 09:40:00,72.5,66.3,29.83,SE,130,1.0,5.0,81,0.00,,CLR,0.00,VWS V14.01,2013-09-28 14:40:00,
2013-09-28 09:45:00,72.9,66.7,29.82,ESE,121,0.0,5.0,81,0.00,,CLR,0.00,VWS V14.01,2013-09-28 14:45:00,
2013-09-28 09:50:00,73.5,67.0,29.82,SSE,167,0.0,5.0,80,0.00,,CLR,0.00,VWS V14.01,2013-09-28 14:50:00,
2013-09-28 09:56:00,74.0,67.1,29.82,South,180,1.0,5.0,79,0.00,,CLR,0.00,VWS V14.01,2013-09-28 14:56:00,
2013-09-28 10:00:00,74.1,66.8,29.82,South,175,0.0,5.0,78,0.00,,CLR,0.00,VWS V14.01,2013-09-28 15:00:00,
2013-09-28 10:01:00,74.2,67.3,29.82,ESE,120,1.0,2.0,79,0.00,,CLR,0.00,VWS V14.01,2013-09-28 15:01:00,
2013-09-28 10:06:00,74.6,67.3,29.82,South,190,1.0,3.0,78,0.00,,CLR,0.00,VWS V14.01,2013-09-28 15:06:00,
2013-09-28 10:11:00,75.0,66.9,29.82,South,178,1.0,6.0,76,0.00,,CLR,0.00,VWS V14.01,2013-09-28 15:11:00,
2013-09-28 10:16:00,75.3,67.2,29.82,South,181,1.0,6.0,76,0.00,,CLR,0.00,VWS V14.01,2013-09-28 15:16:00,
2013-09-28 10:21:00,75.6,67.5,29.82,ESE,120,3.0,6.0,76,0.00,,CLR,0.00,VWS V14.01,2013-09-28 15:21:00,
2013-09-28 10:26:00,76.0,67.5,29.82,SSE,152,1.0,6.0,75,0.00,,CLR,0.00,VWS V14.01,2013-09-28 15:26:00,
2013-09-28 10:30:00,76.3,67.8,29.82,SSE,163,0.0,6.0,75,0.00,,CLR,0.00,VWS V14.01,2013-09-28 15:30:00,
2013-09-28 10:31:00,76.5,68.0,29.82,SW,217,0.0,2.0,75,0.00,,CLR,0.00,VWS V14.01,2013-09-28 15:31:00,
2013-09-28 10:36:00,77.1,67.8,29.82,SSE,165,1.0,4.0,73,0.00,,CLR,0.00,VWS V14.01,2013-09-28 15:36:00,
2013-09-28 10:41:00,77.2,67.9,29.82,SSE,163,0.0,6.0,73,0.00,,CLR,0.00,VWS V14.01,2013-09-28 15:41:00,
2013-09-28 10:47:00,77.5,68.2,29.82,SSE,161,1.0,6.0,73,0.00,,CLR,0.00,VWS V14.01,2013-09-28 15:47:00,
2013-09-28 10:52:00,77.9,68.6,29.82,ESE,119,3.0,6.0,73,0.00,,CLR,0.00,VWS V14.01,2013-09-28 15:52:00,
2013-09-28 10:57:00,78.4,68.2,29.82,SE,139,0.0,6.0,71,0.00,,CLR,0.00,VWS V14.01,2013-09-28 15:57:00,
2013-09-28 11:00:00,78.5,67.9,29.82,SSE,160,1.0,6.0,70,0.00,,CLR,0.00,VWS V14.01,2013-09-28 16:00:00,
2013-09-28 11:02:00,78.3,67.3,29.82,South,177,0.0,5.0,69,0.00,,CLR,0.00,VWS V14.01,2013-09-28 16:02:00,
2013-09-28 11:07:00,78.1,67.5,29.82,SSE,154,5.0,9.0,70,0.00,,CLR,0.00,VWS V14.01,2013-09-28 16:07:00,
2013-09-28 11:12:00,78.0,67.4,29.82,SSE,156,1.0,9.0,70,0.00,,CLR,0.00,VWS V14.01,2013-09-28 16:12:00,
2013-09-28 11:17:00,78.0,67.0,29.82,South,177,0.0,9.0,69,0.00,,CLR,0.00,VWS V14.01,2013-09-28 16:17:00,
2013-09-28 11:22:00,78.3,67.3,29.81,South,182,1.0,9.0,69,0.00,,CLR,0.00,VWS V14.01,2013-09-28 16:22:00,
2013-09-28 11:27:00,78.4,66.6,29.81,SSE,164,3.0,9.0,67,0.00,,CLR,0.00,VWS V14.01,2013-09-28 16:27:00,
2013-09-28 11:30:00,78.5,67.1,29.81,South,171,2.0,9.0,68,0.00,,RA,0.00,VWS V14.01,2013-09-28 16:30:00,
2013-09-28 11:32:00,78.8,66.9,29.81,SSE,160,1.0,5.0,67,0.00,,CLR,0.00,VWS V14.01,2013-09-28 16:32:00,
2013-09-28 11:37:00,79.4,67.5,29.81,SSE,165,0.0,5.0,67,0.00,,CLR,0.00,VWS V14.01,2013-09-28 16:37:00,
2013-09-28 11:42:00,80.0,67.6,29.81,SSE,151,1.0,5.0,66,0.00,,CLR,0.00,VWS V14.01,2013-09-28 16:42:00,
2013-09-28 11:47:00,80.3,67.5,29.81,ESE,110,3.0,7.0,65,0.00,,CLR,0.00,VWS V14.01,2013-09-28 16:47:00,
2013-09-28 11:53:00,80.4,67.1,29.81,SSE,150,1.0,7.0,64,0.00,,CLR,0.00,VWS V14.01,2013-09-28 16:53:00,
2013-09-28 11:58:00,80.5,67.7,29.81,SSE,167,2.0,7.0,65,0.00,,CLR,0.00,VWS V14.01,2013-09-28 16:58:00,
2013-09-28 12:00:00,80.5,67.2,29.81,SE,146,5.0,7.0,64,0.00,,CLR,0.00,VWS V14.01,2013-09-28 17:00:00,
2013-09-28 12:03:00,80.5,67.2,29.81,SSE,160,0.0,5.0,64,0.00,,CLR,0.00,VWS V14.01,2013-09-28 17:03:00,
2013-09-28 12:08:00,80.6,67.3,29.81,SSE,163,0.0,5.0,64,0.00,,CLR,0.00,VWS V14.01,2013-09-28 17:08:00,
2013-09-28 12:13:00,80.6,66.8,29.81,ESE,121,0.0,5.0,63,0.00,,CLR,0.00,VWS V14.01,2013-09-28 17:13:00,
2013-09-28 12:18:00,80.8,67.0,29.81,West,266,0.0,7.0,63,0.00,,CLR,0.00,VWS V14.01,2013-09-28 17:18:00,
2013-09-28 12:23:00,81.0,67.2,29.81,South,183,2.0,7.0,63,0.00,,CLR,0.00,VWS V14.01,2013-09-28 17:23:00,
2013-09-28 12:28:00,81.4,67.6,29.81,WSW,239,0.0,7.0,63,0.00,,CLR,0.00,VWS V14.01,2013-09-28 17:28:00,
2013-09-28 12:30:00,81.5,68.2,29.81,SW,223,0.0,7.0,64,0.00,,CLR,0.00,VWS V14.01,2013-09-28 17:30:00,
2013-09-28 12:33:00,82.0,66.8,29.80,South,175,0.0,7.0,60,0.00,,CLR,0.00,VWS V14.01,2013-09-28 17:33:00,
2013-09-28 12:38:00,82.5,67.2,29.80,SSE,162,1.0,7.0,60,0.00,,CLR,0.00,VWS V14.01,2013-09-28 17:38:00,
2013-09-28 12:44:00,82.6,66.3,29.80,South,177,4.0,7.0,58,0.00,,CLR,0.00,VWS V14.01,2013-09-28 17:44:00,
2013-09-28 12:49:00,82.9,67.6,29.80,SW,214,0.0,7.0,60,0.00,,CLR,0.00,VWS V14.01,2013-09-28 17:49:00,
2013-09-28 12:54:00,83.3,67.0,29.79,South,175,1.0,7.0,58,0.00,,CLR,0.00,VWS V14.01,2013-09-28 17:54:00,
2013-09-28 12:59:00,83.5,67.2,29.80,South,189,3.0,7.0,58,0.00,,CLR,0.00,VWS V14.01,2013-09-28 17:59:00,
2013-09-28 13:00:00,83.6,67.3,29.80,South,169,3.0,7.0,58,0.00,,CLR,0.00,VWS V14.01,2013-09-28 18:00:00,
2013-09-28 13:04:00,83.4,66.6,29.79,South,169,4.0,5.0,57,0.00,,CLR,0.00,VWS V14.01,2013-09-28 18:04:00,
2013-09-28 13:09:00,83.1,66.8,29.79,SE,137,3.0,5.0,58,0.00,,CLR,0.00,VWS V14.01,2013-09-28 18:09:00,
2013-09-28 13:15:00,83.1,67.3,29.79,South,172,1.0,7.0,59,0.00,,CLR,0.00,VWS V14.01,2013-09-28 18:15:00,
2013-09-28 13:20:00,83.1,67.3,29.79,SSE,155,1.0,7.0,59,0.00,,CLR,0.00,VWS V14.01,2013-09-28 18:20:00,
2013-09-28 13:25:00,82.9,67.6,29.78,SSE,154,1.0,7.0,60,0.00,,CLR,0.00,VWS V14.01,2013-09-28 18:25:00,
2013-09-28 13:30:00,82.8,67.0,29.78,SSE,162,1.0,4.0,59,0.00,,CLR,0.00,VWS V14.01,2013-09-28 18:30:00,
2013-09-28 13:35:00,82.5,66.2,29.78,South,169,0.0,5.0,58,0.00,,CLR,0.00,VWS V14.01,2013-09-28 18:35:00,
2013-09-28 13:40:00,82.0,67.2,29.78,ESE,123,1.0,5.0,61,0.00,,CLR,0.00,VWS V14.01,2013-09-28 18:40:00,
2013-09-28 13:45:00,81.8,67.1,29.77,SSW,203,0.0,5.0,61,0.00,,CLR,0.00,VWS V14.01,2013-09-28 18:45:00,
2013-09-28 13:50:00,81.9,67.1,29.77,South,169,0.0,5.0,61,0.00,,CLR,0.00,VWS V14.01,2013-09-28 18:50:00,
2013-09-28 13:55:00,81.9,68.1,29.77,SSW,201,0.0,5.0,63,0.00,,CLR,0.00,VWS V14.01,2013-09-28 18:55:00,
2013-09-28 14:00:00,81.9,67.6,29.76,SSW,194,1.0,4.0,62,0.00,,CLR,0.00,VWS V14.01,2013-09-28 19:00:00,
2013-09-28 14:05:00,82.1,67.3,29.76,South,169,1.0,4.0,61,0.00,,CLR,0.00,VWS V14.01,2013-09-28 19:05:00,
2013-09-28 14:10:00,82.7,67.9,29.75,South,185,0.0,5.0,61,0.00,,CLR,0.00,VWS V14.01,2013-09-28 19:10:00,
2013-09-28 14:15:00,83.1,68.3,29.75,SE,130,1.0,7.0,61,0.00,,CLR,0.00,VWS V14.01,2013-09-28 19:15:00,
2013-09-28 14:21:00,83.2,68.4,29.76,SW,223,0.0,7.0,61,0.00,,CLR,0.00,VWS V14.01,2013-09-28 19:21:00,
2013-09-28 14:26:00,83.3,68.0,29.76,SSW,196,0.0,7.0,60,0.00,,CLR,0.00,VWS V14.01,2013-09-28 19:26:00,
2013-09-28 14:30:00,83.6,67.8,29.76,South,191,5.0,7.0,59,0.00,,CLR,0.00,VWS V14.01,2013-09-28 19:30:00,
2013-09-28 14:31:00,83.7,67.9,29.76,SSE,165,0.0,5.0,59,0.00,,SCT090,0.00,VWS V14.01,2013-09-28 19:31:00,
2013-09-28 14:36:00,83.8,68.0,29.76,SSW,194,2.0,5.0,59,0.00,,SCT090,0.00,VWS V14.01,2013-09-28 19:36:00,
2013-09-28 14:41:00,83.4,67.1,29.76,SSW,198,0.0,5.0,58,0.00,,BKN090,0.00,VWS V14.01,2013-09-28 19:41:00,
2013-09-28 14:46:00,83.0,67.2,29.75,SE,143,0.0,5.0,59,0.00,,BKN090,0.00,VWS V14.01,2013-09-28 19:46:00,
2013-09-28 14:51:00,82.7,66.9,29.75,South,178,0.0,5.0,59,0.00,,BKN090,0.00,VWS V14.01,2013-09-28 19:51:00,
2013-09-28 14:56:00,82.4,66.7,29.75,SSW,204,0.0,5.0,59,0.00,,BKN090,0.00,VWS V14.01,2013-09-28 19:56:00,
2013-09-28 15:00:00,82.3,67.5,29.75,South,179,0.0,5.0,61,0.00,,CLR,0.00,VWS V14.01,2013-09-28 20:00:00,
2013-09-28 15:01:00,82.3,67.5,29.75,ESE,112,3.0,3.0,61,0.00,,BKN090,0.00,VWS V14.01,2013-09-28 20:01:00,
2013-09-28 15:06:00,82.5,67.7,29.75,South,185,3.0,3.0,61,0.00,,BKN090,0.00,VWS V14.01,2013-09-28 20:06:00,
2013-09-28 15:11:00,82.7,67.4,29.75,SE,144,3.0,5.0,60,0.00,,BKN090,0.00,VWS V14.01,2013-09-28 20:11:00,
2013-09-28 15:16:00,82.5,66.7,29.75,South,179,1.0,5.0,59,0.00,,BKN090,0.00,VWS V14.01,2013-09-28 20:16:00,
2013-09-28 15:22:00,82.2,66.9,29.75,ESE,119,2.0,5.0,60,0.00,,BKN090,0.00,VWS V14.01,2013-09-28 20:22:00,
2013-09-28 15:27:00,82.0,67.2,29.75,South,182,0.0,5.0,61,0.00,,BKN090,0.00,VWS V14.01,2013-09-28 20:27:00,
2013-09-28 15:30:00,81.9,67.1,29.75,South,180,0.0,5.0,61,0.00,,CLR,0.00,VWS V14.01,2013-09-28 20:30:00,
2013-09-28 15:32:00,81.8,67.1,29.75,South,185,0.0,2.0,61,0.00,,BKN090,0.00,VWS V14.01,2013-09-28 20:32:00,
2013-09-28 15:37:00,81.5,67.2,29.75,SSE,161,1.0,2.0,62,0.00,,BKN090,0.00,VWS V14.01,2013-09-28 20:37:00,
2013-09-28 15:42:00,81.3,67.1,29.74,SE,131,0.0,3.0,62,0.00,,BKN044,0.00,VWS V14.01,2013-09-28 20:42:00,
2013-09-28 15:47:00,81.3,67.1,29.74,SSE,165,2.0,3.0,62,0.00,,BKN044,0.00,VWS V14.01,2013-09-28 20:47:00,
2013-09-28 15:52:00,81.2,67.4,29.75,ESE,118,1.0,3.0,63,0.00,,BKN044,0.00,VWS V14.01,2013-09-28 20:52:00,
2013-09-28 15:57:00,81.0,67.2,29.75,South,180,1.0,3.0,63,0.00,,BKN044,0.00,VWS V14.01,2013-09-28 20:57:00,
2013-09-28 16:00:00,81.0,67.2,29.75,South,177,0.0,3.0,63,0.00,,CLR,0.00,VWS V14.01,2013-09-28 21:00:00,
2013-09-28 16:02:00,81.0,67.7,29.75,SSE,168,0.0,1.0,64,0.00,,BKN044,0.00,VWS V14.01,2013-09-28 21:02:00,
2013-09-28 16:07:00,81.0,67.7,29.75,SSE,162,0.0,2.0,64,0.00,,BKN044,0.00,VWS V14.01,2013-09-28 21:07:00,
2013-09-28 16:13:00,81.0,67.2,29.74,South,185,0.0,2.0,63,0.00,,BKN044,0.00,VWS V14.01,2013-09-28 21:13:00,
2013-09-28 16:18:00,81.0,67.2,29.74,SE,140,0.0,2.0,63,0.00,,BKN044,0.00,VWS V14.01,2013-09-28 21:18:00,
2013-09-28 16:23:00,81.0,67.7,29.74,SSE,161,0.0,2.0,64,0.00,,BKN044,0.00,VWS V14.01,2013-09-28 21:23:00,
2013-09-28 16:28:00,81.0,67.7,29.74,South,189,1.0,3.0,64,0.00,,BKN044,0.00,VWS V14.01,2013-09-28 21:28:00,
2013-09-28 16:30:00,81.0,67.2,29.74,ESE,121,1.0,3.0,63,0.00,,CLR,0.00,VWS V14.01,2013-09-28 21:30:00,
2013-09-28 16:33:00,81.0,67.7,29.74,South,180,1.0,1.0,64,0.00,,BKN044,0.00,VWS V14.01,2013-09-28 21:33:00,
2013-09-28 16:38:00,80.9,67.6,29.74,SSE,165,1.0,3.0,64,0.00,,BKN044,0.00,VWS V14.01,2013-09-28 21:38:00,
2013-09-28 16:43:00,80.8,67.9,29.74,SSW,200,0.0,3.0,65,0.00,,BKN044,0.00,VWS V14.01,2013-09-28 21:43:00,
2013-09-28 16:48:00,80.7,67.8,29.74,SSE,147,0.0,3.0,65,0.00,,BKN044,0.00,VWS V14.01,2013-09-28 21:48:00,
2013-09-28 16:53:00,80.6,67.8,29.74,SSE,151,0.0,3.0,65,0.00,,BKN044,0.00,VWS V14.01,2013-09-28 21:53:00,
2013-09-28 16:58:00,80.5,67.7,29.73,South,183,1.0,3.0,65,0.00,,BKN044,0.00,VWS V14.01,2013-09-28 21:58:00,
2013-09-28 17:00:00,80.5,67.7,29.73,SE,127,0.0,3.0,65,0.00,,CLR,0.00,VWS V14.01,2013-09-28 22:00:00,
2013-09-28 17:04:00,80.3,67.9,29.74,East,98,0.0,2.0,66,0.00,,BKN044,0.00,VWS V14.01,2013-09-28 22:04:00,
2013-09-28 17:09:00,80.1,68.2,29.74,South,178,0.0,2.0,67,0.00,,BKN044,0.00,VWS V14.01,2013-09-28 22:09:00,
2013-09-28 17:14:00,79.8,67.9,29.77,WNW,296,2.0,9.0,67,0.00,,BKN044,0.00,VWS V14.01,2013-09-28 22:14:00,
2013-09-28 17:19:00,78.2,68.0,29.76,WSW,243,5.0,12.0,71,0.00,,BKN044,0.00,VWS V14.01,2013-09-28 22:19:00,
2013-09-28 17:24:00,76.2,67.3,29.77,NNW,330,5.0,20.0,74,0.00,,BKN044,0.00,VWS V14.01,2013-09-28 22:24:00,
2013-09-28 17:29:00,74.2,67.3,29.78,NW,315,3.0,20.0,79,0.00,,BKN044,0.00,VWS V14.01,2013-09-28 22:29:00,
2013-09-28 17:30:00,74.2,67.3,29.78,NW,315,3.0,20.0,79,0.00,,CLR,0.00,VWS V14.01,2013-09-28 22:30:00,
2013-09-28 17:34:00,72.8,67.3,29.78,NW,313,1.0,10.0,83,0.00,,BKN044,0.00,VWS V14.01,2013-09-28 22:34:00,
2013-09-28 17:39:00,71.6,66.9,29.78,WNW,293,1.0,12.0,85,0.01,,BKN044,0.01,VWS V14.01,2013-09-28 22:39:00,
2013-09-28 17:44:00,70.9,66.8,29.78,NW,317,3.0,12.0,87,0.01,,BKN044,0.01,VWS V14.01,2013-09-28 22:44:00,
2013-09-28 17:50:00,70.4,66.7,29.78,NW,315,5.0,12.0,88,0.01,,BKN044,0.01,VWS V14.01,2013-09-28 22:50:00,
2013-09-28 17:55:00,70.1,66.7,29.78,NW,324,1.0,12.0,89,0.01,,BKN044,0.01,VWS V14.01,2013-09-28 22:55:00,
2013-09-28 18:00:00,69.9,66.8,29.78,NW,313,5.0,5.0,90,0.01,,BKN044,0.01,VWS V14.01,2013-09-28 23:00:00,
2013-09-28 18:05:00,69.8,66.7,29.78,NW,321,0.0,6.0,90,0.01,,BKN044,0.01,VWS V14.01,2013-09-28 23:05:00,
2013-09-28 18:10:00,69.6,66.5,29.78,NW,312,0.0,6.0,90,0.01,,BKN044,0.01,VWS V14.01,2013-09-28 23:10:00,
2013-09-28 18:15:00,69.5,66.8,29.78,West,277,2.0,6.0,91,0.01,,BKN044,0.01,VWS V14.01,2013-09-28 23:15:00,
2013-09-28 18:20:00,69.5,67.1,29.78,NW,321,2.0,6.0,92,0.01,,BKN044,0.01,VWS V14.01,2013-09-28 23:20:00,
2013-09-28 18:25:00,69.4,67.0,29.78,WNW,288,1.0,6.0,92,0.01,,BKN044,0.01,VWS V14.01,2013-09-28 23:25:00,
2013-09-28 18:30:00,69.3,66.9,29.78,NNW,333,0.0,1.0,92,0.01,,BKN044,0.01,VWS V14.01,2013-09-28 23:30:00,
2013-09-28 18:36:00,69.2,66.8,29.78,NW,326,1.0,3.0,92,0.02,,BKN044,0.02,VWS V14.01,2013-09-28 23:36:00,
2013-09-28 18:41:00,69.1,66.7,29.78,NW,326,0.0,3.0,92,0.06,,BKN044,0.06,VWS V14.01,2013-09-28 23:41:00,
2013-09-28 18:46:00,69.0,66.9,29.78,NE,49,0.0,3.0,93,0.07,,BKN044,0.07,VWS V14.01,2013-09-28 23:46:00,
2013-09-28 18:51:00,68.9,66.8,29.78,NE,49,0.0,3.0,93,0.07,,BKN044,0.07,VWS V14.01,2013-09-28 23:51:00,
2013-09-28 18:56:00,68.9,67.1,29.78,ENE,62,0.0,3.0,94,0.08,,BKN044,0.08,VWS V14.01,2013-09-28 23:56:00,
2013-09-28 19:00:00,68.8,67.0,29.78,ENE,71,0.0,3.0,94,0.08,,CLR,0.08,VWS V14.01,2013-09-29 00:00:00,
2013-09-28 19:01:00,68.8,67.0,29.78,ENE,71,0.0,0.0,94,0.07,,BKN044,0.08,VWS V14.01,2013-09-29 00:01:00,
2013-09-28 19:06:00,68.8,67.0,29.77,ENE,74,0.0,0.0,94,0.07,,BKN044,0.08,VWS V14.01,2013-09-29 00:06:00,
2013-09-28 19:11:00,68.7,66.9,29.77,East,90,0.0,2.0,94,0.07,,BKN044,0.08,VWS V14.01,2013-09-29 00:11:00,
2013-09-28 19:16:00,68.6,66.8,29.77,ESE,112,0.0,2.0,94,0.07,,BKN044,0.08,VWS V14.01,2013-09-29 00:16:00,
2013-09-28 19:21:00,68.6,67.1,29.78,ESE,112,0.0,2.0,95,0.07,,-RA,0.08,VWS V14.01,2013-09-29 00:21:00,
2013-09-28 19:27:00,68.6,67.1,29.78,ESE,112,0.0,2.0,95,0.08,,-RA,0.09,VWS V14.01,2013-09-29 00:27:00,
2013-09-28 19:30:00,68.5,67.0,29.78,ESE,112,0.0,2.0,95,0.08,,CLR,0.09,VWS V14.01,2013-09-29 00:30:00,
2013-09-28 19:32:00,68.5,67.0,29.78,ESE,112,0.0,0.0,95,0.08,,-RA,0.09,VWS V14.01,2013-09-29 00:32:00,
2013-09-28 19:37:00,68.5,67.0,29.78,ESE,112,0.0,1.0,95,0.08,,-RA,0.09,VWS V14.01,2013-09-29 00:37:00,
2013-09-28 19:42:00,68.4,66.9,29.77,ESE,112,0.0,1.0,95,0.08,,-RA,0.09,VWS V14.01,2013-09-29 00:42:00,
2013-09-28 19:47:00,68.4,66.9,29.78,SE,132,0.0,1.0,95,0.08,,-RA,0.09,VWS V14.01,2013-09-29 00:47:00,
2013-09-28 19:52:00,68.5,67.3,29.78,SE,132,0.0,1.0,96,0.09,,-RA,0.10,VWS V14.01,2013-09-29 00:52:00,
2013-09-28 19:57:00,68.5,67.3,29.78,SE,132,0.0,1.0,96,0.09,,-RA,0.10,VWS V14.01,2013-09-29 00:57:00,
2013-09-28 20:00:00,68.4,67.2,29.78,SE,132,0.0,1.0,96,0.09,,CLR,0.10,VWS V14.01,2013-09-29 01:00:00,
2013-09-28 20:02:00,68.4,67.2,29.78,SE,132,0.0,1.0,96,0.02,,-RA,0.10,VWS V14.01,2013-09-29 01:02:00,
2013-09-28 20:08:00,68.4,67.2,29.79,SE,132,0.0,1.0,96,0.02,,-RA,0.10,VWS V14.01,2013-09-29 01:08:00,
2013-09-28 20:13:00,68.3,67.1,29.78,SE,132,0.0,1.0,96,0.03,,-RA,0.11,VWS V14.01,2013-09-29 01:13:00,
2013-09-28 20:18:00,68.3,67.1,29.78,ESE,121,0.0,1.0,96,0.03,,-RA,0.11,VWS V14.01,2013-09-29 01:18:00,
2013-09-28 20:23:00,68.3,67.1,29.78,ESE,121,0.0,1.0,96,0.03,,-RA,0.11,VWS V14.01,2013-09-29 01:23:00,
2013-09-28 20:28:00,68.3,67.1,29.79,ESE,121,0.0,1.0,96,0.03,,-RA,0.11,VWS V14.01,2013-09-29 01:28:00,
2013-09-28 20:30:00,68.3,67.1,29.79,ESE,121,0.0,1.0,96,0.03,,CLR,0.11,VWS V14.01,2013-09-29 01:30:00,
2013-09-28 20:33:00,68.3,67.1,29.79,ESE,121,0.0,0.0,96,0.02,,-RA,0.11,VWS V14.01,2013-09-29 01:33:00,
2013-09-28 20:38:00,68.3,67.1,29.79,ESE,121,0.0,0.0,96,0.02,,-RA,0.11,VWS V14.01,2013-09-29 01:38:00,
2013-09-28 20:43:00,68.3,67.1,29.78,ESE,121,0.0,1.0,96,0.03,,-RA,0.12,VWS V14.01,2013-09-29 01:43:00,
2013-09-28 20:48:00,68.2,67.0,29.78,ESE,121,0.0,1.0,96,0.03,,-RA,0.12,VWS V14.01,2013-09-29 01:48:00,
2013-09-28 20:53:00,68.3,67.1,29.79,ESE,121,0.0,1.0,96,0.03,,-RA,0.12,VWS V14.01,2013-09-29 01:53:00,
2013-09-28 20:59:00,68.3,67.1,29.79,ESE,121,0.0,1.0,96,0.03,,-RA,0.12,VWS V14.01,2013-09-29 01:59:00,
2013-09-28 21:00:00,68.2,67.0,29.79,ESE,121,0.0,1.0,96,0.03,,CLR,0.12,VWS V14.01,2013-09-29 02:00:00,
2013-09-28 21:04:00,68.2,67.0,29.79,ESE,121,0.0,0.0,96,0.02,,-RA,0.12,VWS V14.01,2013-09-29 02:04:00,
2013-09-28 21:09:00,68.3,67.1,29.80,ESE,121,0.0,0.0,96,0.02,,-RA,0.12,VWS V14.01,2013-09-29 02:09:00,
2013-09-28 21:14:00,68.2,67.0,29.80,ESE,121,0.0,0.0,96,0.02,,-RA,0.12,VWS V14.01,2013-09-29 02:14:00,
2013-09-28 21:19:00,68.2,67.0,29.80,ESE,121,0.0,0.0,96,0.02,,-RA,0.12,VWS V14.01,2013-09-29 02:19:00,
2013-09-28 21:24:00,68.3,67.1,29.80,ESE,121,0.0,0.0,96,0.02,,-RA,0.12,VWS V14.01,2013-09-29 02:24:00,
2013-09-28 21:29:00,68.3,67.1,29.80,ESE,121,0.0,0.0,96,0.01,,-RA,0.12,VWS V14.01,2013-09-29 02:29:00,
2013-09-28 21:30:00,68.3,67.1,29.80,ESE,121,0.0,0.0,96,0.02,,CLR,0.12,VWS V14.01,2013-09-29 02:30:00,
2013-09-28 21:34:00,68.3,67.1,29.79,ESE,121,0.0,0.0,96,0.01,,-RA,0.12,VWS V14.01,2013-09-29 02:34:00,
2013-09-28 21:40:00,68.3,67.4,29.79,ESE,121,0.0,0.0,97,0.01,,-RA,0.12,VWS V14.01,2013-09-29 02:40:00,
2013-09-28 21:45:00,68.3,67.4,29.80,ESE,121,0.0,0.0,97,0.01,,,0.12,VWS V14.01,2013-09-29 02:45:00,
2013-09-28 21:50:00,68.3,67.4,29.80,ESE,121,0.0,0.0,97,0.01,,,0.12,VWS V14.01,2013-09-29 02:50:00,
2013-09-28 21:55:00,68.3,67.4,29.80,ESE,121,0.0,0.0,97,0.01,,,0.12,VWS V14.01,2013-09-29 02:55:00,
2013-09-28 22:00:00,68.4,67.5,29.80,ESE,121,0.0,0.0,97,0.00,,,0.12,VWS V14.01,2013-09-29 03:00:00,
2013-09-28 22:05:00,68.4,67.5,29.80,ESE,121,0.0,0.0,97,0.00,,,0.12,VWS V14.01,2013-09-29 03:05:00,
2013-09-28 22:10:00,68.4,67.5,29.80,ESE,121,0.0,0.0,97,0.00,,,0.12,VWS V14.01,2013-09-29 03:10:00,
2013-09-28 22:15:00,68.4,67.5,29.80,ESE,121,0.0,0.0,97,0.00,,,0.12,VWS V14.01,2013-09-29 03:15:00,
2013-09-28 22:20:00,68.5,67.6,29.80,SE,144,0.0,1.0,97,0.00,,,0.12,VWS V14.01,2013-09-29 03:20:00,
2013-09-28 22:25:00,68.5,67.6,29.80,SE,144,0.0,1.0,97,0.00,,,0.12,VWS V14.01,2013-09-29 03:25:00,
2013-09-28 22:30:00,68.5,67.6,29.81,SE,144,0.0,0.0,97,0.00,,,0.12,VWS V14.01,2013-09-29 03:30:00,
2013-09-28 22:36:00,68.5,67.6,29.81,SE,144,0.0,0.0,97,0.00,,,0.12,VWS V14.01,2013-09-29 03:36:00,
2013-09-28 22:41:00,68.5,67.6,29.81,SE,144,0.0,0.0,97,0.00,,,0.12,VWS V14.01,2013-09-29 03:41:00,
2013-09-28 22:46:00,68.5,67.6,29.81,SE,144,0.0,0.0,97,0.00,,,0.12,VWS V14.01,2013-09-29 03:46:00,
2013-09-28 22:51:00,68.6,67.7,29.81,SE,144,0.0,0.0,97,0.00,,,0.12,VWS V14.01,2013-09-29 03:51:00,
2013-09-28 22:56:00,68.6,67.7,29.81,SE,144,0.0,0.0,97,0.00,,,0.12,VWS V14.01,2013-09-29 03:56:00,
2013-09-28 23:00:00,68.6,67.7,29.81,SE,144,0.0,0.0,97,0.00,,CLR,0.12,VWS V14.01,2013-09-29 04:00:00,
2013-09-28 23:01:00,68.6,67.7,29.81,SE,144,0.0,0.0,97,0.00,,,0.12,VWS V14.01,2013-09-29 04:01:00,
2013-09-28 23:02:00,68.6,67.7,29.81,SE,144,0.0,0.0,97,0.00,,,0.12,VWS V14.01,2013-09-29 04:02:00,
2013-09-28 23:03:00,68.7,67.8,29.81,SE,144,0.0,0.0,97,0.00,,,0.12,VWS V14.01,2013-09-29 04:03:00,
2013-09-28 23:08:00,68.7,67.8,29.81,SE,144,0.0,0.0,97,0.00,,,0.12,VWS V14.01,2013-09-29 04:08:00,
2013-09-28 23:13:00,68.7,67.8,29.81,SE,144,0.0,0.0,97,0.00,,,0.12,VWS V14.01,2013-09-29 04:13:00,
2013-09-28 23:18:00,68.7,67.8,29.81,SE,144,0.0,0.0,97,0.00,,,0.12,VWS V14.01,2013-09-29 04:18:00,
2013-09-28 23:24:00,68.7,67.8,29.80,SE,144,0.0,0.0,97,0.00,,,0.12,VWS V14.01,2013-09-29 04:24:00,
2013-09-28 23:29:00,68.7,67.8,29.81,SE,144,0.0,0.0,97,0.00,,,0.12,VWS V14.01,2013-09-29 04:29:00,
2013-09-28 23:30:00,68.7,67.8,29.81,SE,144,0.0,0.0,97,0.00,,CLR,0.12,VWS V14.01,2013-09-29 04:30:00,
2013-09-28 23:34:00,68.7,67.8,29.80,SE,144,0.0,0.0,97,0.00,,,0.12,VWS V14.01,2013-09-29 04:34:00,
2013-09-28 23:39:00,68.7,67.8,29.80,SE,144,0.0,0.0,97,0.00,,,0.12,VWS V14.01,2013-09-29 04:39:00,
2013-09-28 23:44:00,68.7,67.8,29.80,SE,144,0.0,1.0,97,0.00,,,0.12,VWS V14.01,2013-09-29 04:44:00,
2013-09-28 23:49:00,68.6,67.7,29.80,NW,309,0.0,2.0,97,0.00,,,0.12,VWS V14.01,2013-09-29 04:49:00,
2013-09-28 23:54:00,68.6,67.7,29.80,NW,309,0.0,2.0,97,0.00,,-RA,0.12,VWS V14.01,2013-09-29 04:54:00,
2013-09-28 23:59:00,68.5,67.6,29.80,NW,319,0.0,2.0,97,0.00,,-RA,0.12,VWS V14.01,2013-09-29 04:59:00,